Location: Broekland
(52.3610°N, 6.2005°E)
Time: 00:05:25
(UTC+00:00)

Sich 1 - Pass Details

Date: 19 May 2025
Orbit: 574 x 603 km, 82.5° (Epoch: 15 June)

Event Time Altitude Azimuth Distance (km) Brightness Sun altitude
Rises 22:30:13 0° 350° (N) 2,840 8.3 -16.4°
Reaches altitude 10° 22:32:28 10° 353° (N) 1,929 6.9 -16.5°
Maximum altitude 22:36:42 68° 77° (ENE) 634 3.0 -16.7°
Enters shadow 22:38:30 33° 152° (SSE) 994 3.6 -16.7°
